Weather History for Kahului, HI

Change the Weather History Date:

Tuesday, February 8, 2011

  Actual Average Record
Temperature  
Mean Temperature 73 °F 72 °F  
Max Temperature 82 °F 81 °F 88 °F (1980)
Min Temperature 63 °F 63 °F 52 °F (1970)
Degree Days  
Heating Degree Days 0 0  
Month to date heating degree days 0 0  
Since 1 July heating degree days 0 0  
Cooling Degree Days 8 7  
Month to date cooling degree days 56 56  
Year to date cooling degree days 263 273  
Growing Degree Days 23 (Base 50)    
Moisture  
Dew Point 62 °F    
Average Humidity 70    
Maximum Humidity 93    
Minimum Humidity 47    
Precipitation  
Precipitation 0.00 in 0.07 in 1.98 in (1949)
Month to date precipitation 0.17 0.59  
Year to date precipitation 4.48 3.46  
Snow  
Snow 0.00 in - - ()
Month to date snowfall 0.0  
Since 1 July snowfall 0.0  
Snow Depth 0.00 in    
Sea Level Pressure  
Sea Level Pressure 30.00 in    
Wind  
Wind Speed 8 mph (East)    
Max Wind Speed 21 mph    
Max Gust Speed 26 mph    
Visibility 10 miles    
Events      
T = Trace of Precipitation, MM = Missing Value Source: NWS Daily Summary

Daily Weather History Graph

Daily Weather History Graph

Search for Another Location

Airport:

Trip Planner

Search our weather history database for the weather conditions in past years. The results will help you decide how hot, cold, wet, or windy it might be!

Date:

Astronomy

Feb. 08, 2011 Rise Set
Actual Time 6:59 AM HST 6:20 PM HST
Civil Twilight 6:36 AM HST 6:43 PM HST
Nautical Twilight 6:10 AM HST 7:09 PM HST
Astronomical Twilight 5:44 AM HST 7:35 PM HST
Moon 10:06 AM HST (2/8) 11:13 PM HST (2/8)
Length of Visible Light 12h 06m
Length of Day
11h 20m
Waxing Crescent, 28% of the Moon is Illuminated
Feb 8
Waxing Crescent
Feb 10
First Quarter
Feb 17
Full
Feb 24
Last Quarter
Mar 4
New

Hourly Weather History & Observations

Time (HST) Temp. Heat Index Dew Point Humidity Pressure Visibility Wind Dir Wind Speed Gust Speed Precip Events Conditions
12:54 AM 68.0 °F - 64.9 °F 90% 30.03 in 10.0 mi Calm Calm - N/A   Clear
1:54 AM 66.0 °F - 64.0 °F 93% 30.01 in 10.0 mi Calm Calm - N/A   Clear
2:54 AM 66.0 °F - 63.0 °F 90% 30.00 in 10.0 mi Calm Calm - N/A   Clear
3:54 AM 64.0 °F - 62.1 °F 93% 29.99 in 10.0 mi ESE 5.8 mph - N/A   Clear
4:54 AM 64.9 °F - 62.1 °F 90% 29.99 in 10.0 mi Calm Calm - N/A   Clear
5:54 AM 64.0 °F - 61.0 °F 90% 29.99 in 10.0 mi ESE 8.1 mph - N/A   Clear
6:47 AM 66.2 °F - 60.8 °F 83% 29.98 in 10.0 mi East 15.0 mph 23.0 mph N/A   Clear
6:54 AM 64.9 °F - 61.0 °F 87% 30.01 in 10.0 mi ESE 10.4 mph - N/A   Partly Cloudy
7:54 AM 66.9 °F - 62.1 °F 84% 30.03 in 10.0 mi Calm Calm - N/A   Partly Cloudy
8:54 AM 73.0 °F - 64.0 °F 73% 30.03 in 10.0 mi ESE 11.5 mph 21.9 mph N/A   Partly Cloudy
9:54 AM 75.9 °F - 64.0 °F 67% 30.04 in 10.0 mi South 6.9 mph - N/A   Partly Cloudy
10:54 AM 78.1 °F - 63.0 °F 60% 30.04 in 10.0 mi East 10.4 mph 17.3 mph N/A   Scattered Clouds
11:54 AM 80.1 °F 80.9 °F 60.1 °F 50% 30.01 in 10.0 mi ENE 17.3 mph 24.2 mph N/A   Clear
12:54 PM 81.0 °F 81.7 °F 61.0 °F 50% 29.98 in 10.0 mi ENE 17.3 mph 25.3 mph N/A   Partly Cloudy
1:54 PM 81.0 °F 81.7 °F 61.0 °F 50% 29.94 in 10.0 mi ENE 19.6 mph 25.3 mph N/A   Scattered Clouds
2:54 PM 82.0 °F 82.7 °F 61.0 °F 49% 29.93 in 10.0 mi ENE 16.1 mph 25.3 mph N/A   Scattered Clouds
3:54 PM 81.0 °F 82.2 °F 63.0 °F 54% 29.93 in 10.0 mi NE 13.8 mph 20.7 mph N/A   Clear
4:54 PM 80.1 °F 81.2 °F 62.1 °F 54% 29.94 in 10.0 mi ENE 11.5 mph 21.9 mph N/A   Clear
5:54 PM 75.0 °F - 62.1 °F 64% 29.96 in 10.0 mi NE 5.8 mph - N/A   Partly Cloudy
6:54 PM 73.9 °F - 62.1 °F 66% 29.99 in 10.0 mi East 11.5 mph - N/A   Partly Cloudy
7:54 PM 73.0 °F - 60.1 °F 64% 30.02 in 10.0 mi ESE 9.2 mph - N/A   Partly Cloudy
8:54 PM 72.0 °F - 61.0 °F 68% 30.03 in 10.0 mi ENE 8.1 mph - N/A   Partly Cloudy
9:54 PM 72.0 °F - 61.0 °F 68% 30.04 in 10.0 mi ENE 10.4 mph 18.4 mph N/A   Partly Cloudy
10:54 PM 70.0 °F - 59.0 °F 68% 30.04 in 10.0 mi ESE 6.9 mph - N/A   Partly Cloudy
11:54 PM 66.0 °F - 59.0 °F 78% 30.03 in 10.0 mi Variable 5.8 mph - N/A   Clear